| time (UTC) | temp C | wind direction | speed KPH | gust KPH | rain 1hr cm | rain 24hr cm | rain mn cm | humidity % | barometer mb |
| 20260510131525 | 25 | 173 | 6.4 | 14.5 | 0.00 | 0.00 | 0.00 | 90 | 1012.8 |
| 20260510130024 | 25 | 144 | 6.4 | 12.9 | 0.00 | 0.00 | 0.00 | 90 | 1012.5 |
| 20260510124522 | 24 | 150 | 4.8 | 11.3 | 0.00 | 0.05 | 0.00 | 91 | 1012.3 |
| 20260510123022 | 24 | 148 | 4.8 | 9.7 | 0.00 | 0.05 | 0.00 | 91 | 1012.2 |
| 20260510121521 | 24 | 132 | 6.4 | 11.3 | 0.00 | 0.05 | 0.00 | 91 | 1011.8 |
| 20260510120020 | 24 | 147 | 4.8 | 14.5 | 0.00 | 0.10 | 0.00 | 91 | 1011.7 |
| 20260510114520 | 24 | 153 | 4.8 | 11.3 | 0.00 | 0.10 | 0.00 | 90 | 1011.6 |
| 20260510113019 | 24 | 142 | 8.0 | 14.5 | 0.00 | 0.10 | 0.00 | 90 | 1011.6 |
| 20260510111520 | 24 | 138 | 12.9 | 20.9 | 0.00 | 0.10 | 0.00 | 90 | 1011.5 |
| 20260510110021 | 24 | 171 | 9.7 | 17.7 | 0.00 | 0.10 | 0.00 | 90 | 1011.5 |
| 20260510104517 | 24 | 163 | 8.0 | 14.5 | 0.00 | 0.10 | 0.00 | 90 | 1011.4 |
| 20260510103015 | 24 | 142 | 11.3 | 17.7 | 0.00 | 0.10 | 0.00 | 89 | 1011.4 |
| 20260510101517 | 24 | 149 | 4.8 | 11.3 | 0.00 | 0.10 | 0.00 | 89 | 1011.2 |
| 20260510100014 | 24 | 171 | 6.4 | 11.3 | 0.00 | 0.10 | 0.00 | 89 | 1011.3 |
| 20260510094517 | 24 | 169 | 8.0 | 12.9 | 0.00 | 0.10 | 0.00 | 88 | 1011.4 |
| 20260510093012 | 24 | 178 | 9.7 | 14.5 | 0.00 | 0.10 | 0.00 | 88 | 1011.4 |
| 20260510091510 | 24 | 176 | 9.7 | 17.7 | 0.00 | 0.10 | 0.00 | 88 | 1011.4 |
| 20260510090015 | 24 | 162 | 9.7 | 12.9 | 0.00 | 0.10 | 0.00 | 88 | 1011.3 |
| 20260510084508 | 24 | 171 | 4.8 | 11.3 | 0.00 | 0.10 | 0.00 | 88 | 1011.3 |
| 20260510083006 | 24 | 164 | 8.0 | 11.3 | 0.00 | 0.10 | 0.00 | 87 | 1011.3 |
| 20260510081519 | 24 | 148 | 6.4 | 12.9 | 0.00 | 0.10 | 0.00 | 87 | 1011.3 |
| 20260510080005 | 24 | 146 | 6.4 | 11.3 | 0.00 | 0.10 | 0.00 | 87 | 1011.4 |
| 20260510074504 | 24 | 130 | 6.4 | 12.9 | 0.00 | 0.10 | 0.00 | 87 | 1011.3 |
| 20260510073003 | 24 | 126 | 9.7 | 16.1 | 0.00 | 0.10 | 0.00 | 87 | 1011.3 |
| 20260510071501 | 24 | 136 | 8.0 | 19.3 | 0.00 | 0.10 | 0.00 | 86 | 1011.4 |
| 20260510070105 | 25 | 134 | 9.7 | 16.1 | 0.00 | 0.10 | 0.00 | 86 | 1011.5 |
| 20260510064604 | 25 | 110 | 11.3 | 16.1 | 0.00 | 0.10 | 0.00 | 85 | 1011.7 |
| 20260510063058 | 25 | 131 | 8.0 | 19.3 | 0.00 | 0.10 | 0.00 | 84 | 1011.7 |
| 20260510061556 | 25 | 109 | 9.7 | 16.1 | 0.00 | 0.10 | 0.00 | 84 | 1012.0 |
| 20260510060054 | 25 | 94 | 12.9 | 20.9 | 0.00 | 0.10 | 0.00 | 84 | 1012.1 |
| 20260510054552 | 25 | 119 | 9.7 | 16.1 | 0.00 | 0.10 | 0.00 | 83 | 1012.1 |
| 20260510053050 | 25 | 98 | 6.4 | 14.5 | 0.00 | 0.10 | 0.00 | 83 | 1012.0 |
| 20260510051547 | 25 | 143 | 8.0 | 14.5 | 0.00 | 0.10 | 0.00 | 82 | 1011.7 |
| 20260510050043 | 25 | 141 | 8.0 | 14.5 | 0.00 | 0.10 | 0.00 | 81 | 1011.5 |
| 20260510044545 | 25 | 162 | 6.4 | 14.5 | 0.00 | 0.10 | 0.10 | 80 | 1011.5 |
| 20260510043045 | 25 | 155 | 8.0 | 17.7 | 0.00 | 0.10 | 0.10 | 80 | 1011.2 |
| 20260510041542 | 25 | 159 | 11.3 | 17.7 | 0.00 | 0.10 | 0.10 | 80 | 1011.0 |
| 20260510040042 | 25 | 168 | 12.9 | 17.7 | 0.00 | 0.10 | 0.10 | 80 | 1010.8 |
| 20260510034542 | 25 | 154 | 12.9 | 17.7 | 0.00 | 0.10 | 0.10 | 80 | 1011.2 |
| 20260510033051 | 25 | 126 | 8.0 | 16.1 | 0.00 | 0.10 | 0.10 | 79 | 1011.1 |
| 20260510031547 | 25 | 137 | 9.7 | 16.1 | 0.00 | 0.10 | 0.10 | 77 | 1011.1 |
| 20260510030040 | 25 | 158 | 9.7 | 17.7 | 0.00 | 0.10 | 0.10 | 77 | 1010.7 |
| 20260510024544 | 26 | 160 | 11.3 | 20.9 | 0.00 | 0.10 | 0.10 | 76 | 1010.3 |
| 20260510023040 | 26 | 172 | 14.5 | 27.4 | 0.00 | 0.10 | 0.10 | 76 | 1009.7 |
| 20260510021539 | 26 | 174 | 16.1 | 29.0 | 0.00 | 0.10 | 0.10 | 75 | 1009.2 |
| 20260510020039 | 26 | 190 | 16.1 | 22.5 | 0.00 | 0.10 | 0.10 | 74 | 1009.5 |
| 20260510014538 | 26 | 184 | 16.1 | 20.9 | 0.00 | 0.10 | 0.10 | 73 | 1009.2 |
| 20260510013038 | 26 | 201 | 11.3 | 17.7 | 0.00 | 0.10 | 0.10 | 73 | 1009.7 |
| 20260510011549 | 26 | 174 | 9.7 | 17.7 | 0.00 | 0.10 | 0.10 | 73 | 1009.6 |
| 20260510010037 | 26 | 150 | 9.7 | 16.1 | 0.00 | 0.10 | 0.10 | 73 | 1009.4 |
| 20260510004540 | 27 | 186 | 11.3 | 17.7 | 0.00 | 0.10 | 0.10 | 71 | 1009.4 |
| 20260510003058 | 27 | 144 | 12.9 | 24.1 | 0.00 | 0.10 | 0.10 | 72 | 1009.2 |
| 20260510001539 | 27 | 167 | 17.7 | 24.1 | 0.00 | 0.10 | 0.10 | 70 | 1009.1 |
| 20260510000038 | 27 | 167 | 14.5 | 24.1 | 0.00 | 0.10 | 0.10 | 71 | 1009.0 |
| 20260509234540 | 27 | 153 | 16.1 | 27.4 | 0.00 | 0.10 | 0.10 | 69 | 1009.2 |
| 20260509233034 | 28 | 160 | 19.3 | 27.4 | 0.00 | 0.10 | 0.10 | 66 | 1009.1 |
| 20260509231542 | 28 | 148 | 19.3 | 25.7 | 0.00 | 0.10 | 0.10 | 66 | 1009.3 |
| 20260509230035 | 28 | 177 | 17.7 | 25.7 | 0.00 | 0.10 | 0.10 | 66 | 1009.2 |
| 20260509224534 | 28 | 153 | 11.3 | 24.1 | 0.00 | 0.10 | 0.10 | 65 | 1009.1 |
| 20260509223032 | 29 | 161 | 14.5 | 16.1 | 0.00 | 0.10 | 0.10 | 67 | 1009.2 |
| 20260509221530 | 30 | 155 | 9.7 | 16.1 | 0.00 | 0.10 | 0.10 | 63 | 1009.1 |
| 20260509220029 | 30 | 165 | 3.2 | 14.5 | 0.00 | 0.10 | 0.10 | 60 | 1009.1 |
| 20260509214527 | 29 | 92 | 4.8 | 12.9 | 0.00 | 0.10 | 0.10 | 60 | 1009.2 |
| 20260509213025 | 29 | 105 | 6.4 | 12.9 | 0.00 | 0.10 | 0.10 | 61 | 1009.3 |
| 20260509211521 | 28 | 101 | 4.8 | 12.9 | 0.00 | 0.10 | 0.10 | 63 | 1009.3 |
| 20260509210023 | 28 | 96 | 8.0 | 14.5 | 0.00 | 0.10 | 0.10 | 65 | 1009.1 |
| 20260509204518 | 28 | 136 | 8.0 | 14.5 | 0.00 | 0.10 | 0.10 | 68 | 1009.4 |
| 20260509203021 | 27 | 96 | 4.8 | 12.9 | 0.00 | 0.10 | 0.10 | 72 | 1009.6 |
| 20260509201517 | 27 | 56 | 6.4 | 12.9 | 0.00 | 0.10 | 0.10 | 75 | 1009.7 |
| 20260509200021 | 27 | 61 | 6.4 | 16.1 | 0.00 | 0.10 | 0.10 | 76 | 1009.9 |
| 20260509194516 | 27 | 42 | 9.7 | 14.5 | 0.00 | 0.10 | 0.10 | 76 | 1010.0 |
| 20260509193014 | 27 | 53 | 6.4 | 16.1 | 0.00 | 0.10 | 0.10 | 76 | 1010.0 |
| 20260509191513 | 27 | 45 | 9.7 | 16.1 | 0.00 | 0.10 | 0.10 | 74 | 1010.1 |
| 20260509190016 | 27 | 22 | 12.9 | 19.3 | 0.00 | 0.10 | 0.10 | 72 | 1010.1 |
| 20260509184510 | 27 | 30 | 11.3 | 19.3 | 0.00 | 0.10 | 0.10 | 76 | 1010.1 |
| 20260509183021 | 27 | 345 | 9.7 | 19.3 | 0.00 | 0.10 | 0.10 | 76 | 1010.3 |
| 20260509181507 | 26 | 5 | 11.3 | 17.7 | 0.00 | 0.10 | 0.10 | 76 | 1010.4 |
| 20260509180007 | 26 | 360 | 8.0 | 19.3 | 0.00 | 0.10 | 0.10 | 76 | 1010.6 |
| 20260509174508 | 26 | 355 | 12.9 | 20.9 | 0.00 | 0.10 | 0.10 | 75 | 1010.7 |
| 20260509173006 | 26 | 348 | 12.9 | 20.9 | 0.00 | 0.10 | 0.10 | 74 | 1010.7 |
| 20260509171507 | 26 | 331 | 9.7 | 17.7 | 0.00 | 0.10 | 0.10 | 73 | 1010.6 |
| 20260509170006 | 26 | 345 | 9.7 | 14.5 | 0.00 | 0.10 | 0.10 | 74 | 1010.5 |
| 20260509164509 | 26 | 323 | 4.8 | 8.0 | 0.00 | 0.10 | 0.10 | 69 | 1010.8 |
| 20260509163003 | 26 | 284 | 0.0 | 4.8 | 0.00 | 0.10 | 0.10 | 70 | 1010.6 |
| 20260509161600 | 26 | 269 | 3.2 | 6.4 | 0.00 | 0.10 | 0.10 | 72 | 1010.4 |
| 20260509160059 | 25 | 283 | 0.0 | 8.0 | 0.00 | 0.10 | 0.10 | 75 | 1010.1 |
| 20260509154601 | 25 | 355 | 6.4 | 9.7 | 0.00 | 0.10 | 0.10 | 76 | 1010.2 |
| 20260509153058 | 25 | 321 | 8.0 | 14.5 | 0.00 | 0.10 | 0.10 | 75 | 1010.6 |
| 20260509151556 | 25 | 342 | 8.0 | 20.9 | 0.00 | 0.10 | 0.10 | 70 | 1010.8 |
| 20260509150052 | 23 | 316 | 16.1 | 27.4 | 0.00 | 0.10 | 0.10 | 79 | 1010.8 |
| 20260509144552 | 23 | 186 | 12.9 | 20.9 | 0.00 | 0.10 | 0.10 | 78 | 1010.5 |
| 20260509143052 | 23 | 323 | 16.1 | 25.7 | 0.00 | 0.10 | 0.10 | 81 | 1010.8 |
| 20260509141556 | 23 | 186 | 17.7 | 32.2 | 0.00 | 0.10 | 0.10 | 81 | 1009.9 |
| 20260509140057 | 23 | 166 | 29.0 | 43.5 | 0.00 | 0.10 | 0.10 | 80 | 1009.3 |
| 20260509134556 | 23 | 186 | 29.0 | 38.6 | 0.03 | 0.10 | 0.10 | 85 | 1009.2 |
| 20260509133046 | 24 | 169 | 29.0 | 38.6 | 0.03 | 0.10 | 0.10 | 91 | 1009.2 |